Tracking 35237 objects as of 6-Sep-2026
HD Live streaming from Space Station
objects crossing your sky now

FREGAT DEB

Track FREGAT DEB now!
10-day predictions


NORAD ID: 46093
Int'l Code: 2011-037JC
Launch date: July 18, 2011
Source: Commonwealth of Independent States (former USSR) (CIS)
Launch site: TYURATAM MISSILE AND SPACE COMPLEX (TTMTR)

Note: This is SATELLITE DEBRIS
Your satellite tracking list
Your tracking list is empty




NASA's NSSDC Master Catalog

Two Line Element Set (TLE):
1 46093U 11037JC  21077.76423170  .00146283  00000-0  00000-0 0  9995
2 46093  51.1218 228.2711 1935763  98.3237 284.0325  9.72649810 21857
Source of the keplerian elements: AFSPC